Location: Neuvy Saint Sepulchre
(46.5953°N, 1.8122°E)
Time: 07:35:25
(UTC+01:00)

ISS - Pass Details

Date: 23 November 2023
Orbit: 416 x 417 km, 51.6° (Epoch: 01 December)

Event Time Altitude Azimuth Distance (km) Brightness Sun altitude
Rises 18:12:13 0° 255° (WSW) 2,354 2.3 -10.2°
Reaches altitude 10° 18:14:20 10° 260° (W) 1,493 0.6 -10.6°
Maximum altitude 18:17:38 56° 340° (NNW) 502 -3.4 -11.1°
Enters shadow 18:19:59 18° 55° (NE) 1,116 -2.2 -11.5°
